Location: Aranbee
(34.0885°N, 118.2342°W)
Time: 13:01:49
(UTC+00:00)

Tiros 1 - Pass Details

Date: 26 November 2020
Orbit: 630 x 663 km, 48.4° (Epoch: 21 January)

Event Time Altitude Azimuth Distance (km) Brightness Sun altitude
Rises 02:40:46 0° 296° (WNW) 2,985 11.4 -23.7°
Reaches altitude 10° 02:44:09 10° 321° (NW) 2,068 10.1 -24.4°
Enters shadow 02:46:44 15° 353° (N) 1,779 9.4 -25.0°
Maximum altitude 02:46:47 15° 354° (N) 1,778 - -25.0°
Drops below altitude 10° 02:49:24 10° 28° (NNE) 2,058 - -25.5°
Sets 02:52:47 0° 53° (NE) 2,961 - -26.2°
